period_start,C,m1,H,J0,J1,J2,J3,J4,J5,JA,JB,JC,JD,JJ,JK,JN,#
2014-08-06 00:01:44,0.22,0.38,0.00,24.42,28.97,31.32,9.52,40.97,1003.71,2031.99,3346.50,3181.64,3448.23,500.22,488.26,15.00,0000 0000 0000 0000 000000
2014-08-06 00:06:45,0.10,0.39,0.00,24.44,28.97,31.30,9.39,40.88,1003.63,2031.99,3344.05,3179.91,3446.58,500.10,487.95,15.04,0000 0000 0000 0000 000000
2014-08-06 00:11:47,0.16,0.40,0.00,24.44,28.97,31.30,9.37,40.69,1003.82,2032.01,3341.20,3178.06,3444.50,499.87,487.94,15.08,0000 0000 0000 0000 000000
2014-08-06 00:16:48,0.20,0.40,0.00,24.44,28.95,31.30,9.46,41.04,1003.82,2032.02,3337.65,3175.71,3442.09,499.89,487.99,15.13,0000 0000 0000 0000 000000
2014-08-06 00:21:49,0.13,0.41,0.00,24.43,28.95,31.29,9.46,40.83,1003.80,2032.01,3334.59,3173.58,3439.83,500.04,488.03,15.17,0000 0000 0000 0000 000000
2014-08-06 00:26:50,0.06,0.41,0.00,24.43,28.95,31.29,9.41,40.82,1003.71,2032.01,3332.94,3172.69,3438.77,499.96,487.92,15.21,0000 0000 0000 0000 000000
2014-08-06 00:31:52,0.11,0.42,0.00,24.43,28.95,31.28,9.33,40.80,1003.50,2032.01,3330.85,3171.13,3437.19,499.81,487.84,15.25,0000 0000 0000 0000 000000
2014-08-06 00:36:53,0.07,0.42,0.00,24.45,28.94,31.28,9.44,40.82,1003.47,2032.01,3329.46,3170.20,3436.26,499.88,487.78,15.29,0000 0000 0000 0000 000000
2014-08-06 00:41:54,0.14,0.43,0.00,24.45,28.93,31.28,9.39,40.90,1003.47,2032.03,3327.09,3168.60,3434.56,500.05,487.88,15.33,0000 0000 0000 0000 000000
2014-08-06 00:46:55,0.09,0.43,0.00,24.45,28.92,31.27,9.44,40.96,1003.46,2032.04,3324.93,3167.07,3433.02,499.89,487.75,15.38,0000 0000 0000 0000 000000
2014-08-06 00:51:57,0.13,0.44,0.00,24.44,28.92,31.28,9.46,40.81,1003.44,2032.08,3322.96,3165.75,3431.64,500.06,487.99,15.42,0000 0000 0000 0000 000000
2014-08-06 00:56:58,0.14,0.44,0.00,24.42,28.92,31.26,9.46,40.85,1003.44,2032.05,3319.95,3163.76,3429.52,500.31,488.10,15.46,0000 0000 0000 0000 000000
2014-08-06 01:02:00,0.08,0.45,0.00,24.41,28.92,31.26,9.48,40.71,1003.44,2032.05,3318.11,3162.61,3428.08,500.21,488.19,15.50,0000 0000 0000 0000 000000
2014-08-06 01:07:01,0.21,0.45,0.00,24.42,28.92,31.27,9.52,40.73,1003.44,2032.09,3314.78,3160.28,3425.77,500.49,488.47,15.54,0000 0000 0000 0000 000000
2014-08-06 01:12:01,0.29,0.47,0.00,24.42,28.91,31.27,9.33,40.84,1003.44,2032.08,3309.62,3156.75,3422.07,499.66,487.59,15.59,0000 0000 0000 0000 000000
2014-08-06 01:17:03,0.35,0.48,0.00,24.38,28.90,31.26,9.50,40.79,1003.44,2032.15,3303.39,3152.56,3417.68,500.01,487.89,15.63,0000 0000 0000 0000 000000
2014-08-06 01:22:04,0.37,0.50,0.00,24.36,28.90,31.25,9.46,40.76,1003.44,2032.09,3296.51,3147.88,3412.76,499.99,487.94,15.67,0000 0000 0000 0000 000000
2014-08-06 01:27:05,0.27,0.51,0.00,24.28,28.90,31.27,9.48,40.80,1003.44,2032.18,3290.90,3144.15,3408.87,500.04,488.18,15.71,0000 0000 0000 0000 000000
2014-08-06 01:32:06,0.19,0.52,0.00,24.16,28.90,31.28,9.45,40.76,1003.43,2032.14,3287.06,3141.56,3406.18,500.10,488.43,15.75,0000 0000 0000 0000 000000
2014-08-06 01:37:07,0.17,0.53,0.00,24.23,28.87,31.28,9.43,40.73,1003.43,2032.16,3283.59,3139.28,3403.58,500.01,488.31,15.79,0000 0000 0000 0000 000000
2014-08-06 01:42:08,0.08,0.53,0.00,24.26,28.86,31.26,9.45,40.83,1003.43,2032.32,3282.30,3138.35,3402.92,500.20,488.38,15.84,0000 0000 0000 0000 000000
2014-08-06 01:47:10,0.14,0.54,0.00,24.29,28.84,31.20,9.49,40.96,1003.43,2032.73,3280.49,3137.20,3401.52,500.38,488.49,15.88,0000 0000 0000 0000 000000
2014-08-06 01:52:11,0.07,0.54,0.00,24.32,28.82,31.18,9.34,40.83,1003.43,2032.87,3279.04,3136.08,3400.59,499.72,487.64,15.92,0000 0000 0000 0000 000000
2014-08-06 01:57:12,0.13,0.54,0.00,24.37,28.82,31.16,9.43,40.76,1003.39,2032.91,3277.33,3135.07,3399.24,499.99,487.96,15.96,0000 0000 0000 0000 000000
2014-08-06 02:02:13,0.11,0.55,0.00,24.40,28.81,31.15,9.39,40.86,1003.29,2032.89,3275.03,3133.46,3397.38,499.71,487.62,16.00,0000 0000 0000 0000 000000
2014-08-06 02:07:15,0.01,0.55,0.00,24.43,28.80,31.14,9.49,40.87,1003.23,2032.92,3274.14,3133.00,3397.00,500.23,487.97,16.05,0000 0000 0000 0000 000000
2014-08-06 02:12:16,-0.00,0.55,0.00,24.48,28.81,31.14,9.50,40.88,1003.22,2032.86,3274.00,3132.97,3396.96,500.47,488.20,16.09,0000 0000 0000 0000 000000
2014-08-06 02:17:17,0.01,0.55,0.00,24.51,28.82,31.16,9.38,40.98,1003.04,2032.83,3273.95,3132.96,3396.72,500.28,488.11,16.13,0000 0000 0000 0000 000000
2014-08-06 02:22:18,0.05,0.55,0.00,24.52,28.82,31.16,9.38,40.86,1003.00,2032.92,3273.41,3132.44,3396.19,499.62,487.12,16.17,0000 0000 0000 0000 000000
2014-08-06 02:27:20,-0.01,0.55,0.00,24.55,28.82,31.18,9.44,41.03,1002.99,2032.84,3273.01,3132.02,3396.00,499.62,487.18,16.21,0000 0000 0000 0000 000000
2014-08-06 02:32:21,-0.01,0.55,0.00,24.58,28.83,31.19,9.43,40.93,1002.95,2032.75,3273.00,3132.00,3396.00,499.86,487.39,16.26,0000 0000 0000 0000 000000
2014-08-06 02:37:22,-0.02,0.55,0.00,24.59,28.85,31.20,9.43,41.11,1002.94,2032.48,3272.90,3132.00,3395.98,500.01,487.49,16.30,0000 0000 0000 0000 000000
2014-08-06 02:42:23,-0.00,0.55,0.00,24.60,28.85,31.22,9.34,41.04,1002.94,2032.35,3272.42,3131.99,3395.77,499.86,487.47,16.34,0000 0000 0000 0000 000000
2014-08-06 02:47:24,0.01,0.55,0.00,24.62,28.86,31.22,9.41,41.09,1002.94,2032.25,3272.02,3131.93,3395.25,499.96,487.29,16.38,0000 0000 0000 0000 000000
2014-08-06 02:52:25,0.00,0.55,0.00,24.66,28.87,31.24,9.46,41.14,1002.94,2032.12,3272.00,3131.69,3395.05,500.00,487.43,16.42,0000 0000 0000 0000 000000
2014-08-06 02:57:26,0.01,0.55,0.00,24.68,28.88,31.24,9.48,41.07,1002.94,2032.14,3272.00,3131.44,3395.01,500.10,487.22,16.46,0000 0000 0000 0000 000000
2014-08-06 03:02:27,0.00,0.55,0.00,24.71,28.90,31.26,9.38,41.14,1002.94,2032.08,3271.98,3131.10,3395.00,499.83,487.04,16.51,0000 0000 0000 0000 000000
2014-08-06 03:07:28,0.01,0.55,0.00,24.73,28.91,31.28,9.41,41.21,1002.94,2032.02,3271.57,3131.01,3394.98,500.18,487.36,16.55,0000 0000 0000 0000 000000
2014-08-06 03:12:29,0.01,0.55,0.00,24.74,28.92,31.29,9.38,41.30,1002.93,2032.03,3271.11,3131.00,3394.91,499.87,486.99,16.59,0000 0000 0000 0000 000000
2014-08-06 03:17:31,0.01,0.55,0.00,24.75,28.93,31.29,9.45,41.36,1002.93,2032.00,3270.96,3130.91,3394.31,499.99,487.18,16.63,0000 0000 0000 0000 000000
2014-08-06 03:22:31,0.02,0.56,0.00,24.76,28.95,31.30,9.42,41.22,1002.93,2032.00,3270.90,3130.54,3394.02,499.97,486.98,16.67,0000 0000 0000 0000 000000
2014-08-06 03:27:32,0.02,0.56,0.00,24.80,28.96,31.32,9.42,41.22,1002.94,2032.00,3270.35,3130.13,3394.00,500.27,486.99,16.72,0000 0000 0000 0000 000000
2014-08-06 03:32:33,0.00,0.56,0.00,24.81,28.97,31.33,9.33,41.17,1002.94,2032.00,3270.04,3130.02,3393.97,499.75,486.79,16.76,0000 0000 0000 0000 000000
2014-08-06 03:37:35,0.00,0.56,0.00,24.81,29.00,31.34,9.39,41.13,1002.94,2032.00,3270.00,3130.00,3393.88,499.92,486.91,16.80,0000 0000 0000 0000 000000
2014-08-06 03:42:35,0.00,0.56,0.00,24.84,29.00,31.36,9.38,41.23,1002.94,2032.00,3269.99,3130.00,3393.57,499.72,486.79,16.84,0000 0000 0000 0000 000000
2014-08-06 03:47:36,0.01,0.56,0.00,24.86,29.02,31.38,9.33,41.13,1002.94,2032.00,3269.90,3129.97,3393.12,499.48,486.49,16.88,0000 0000 0000 0000 000000
2014-08-06 03:52:38,0.03,0.56,0.00,24.86,29.03,31.39,9.39,41.16,1002.92,2032.00,3269.30,3129.57,3393.01,500.05,487.02,16.92,0000 0000 0000 0000 000000
2014-08-06 03:57:39,0.01,0.56,0.00,24.83,29.05,31.42,9.41,41.23,1002.84,2032.00,3269.01,3129.12,3393.00,499.80,486.68,16.97,0000 0000 0000 0000 000000
2014-08-06 04:02:40,0.00,0.56,0.00,24.86,29.06,31.43,9.46,41.23,1002.77,2031.99,3269.00,3129.03,3392.97,500.03,487.00,17.01,0000 0000 0000 0000 000000
2014-08-06 04:07:42,0.02,0.56,0.00,24.87,29.07,31.43,9.36,41.29,1002.61,2031.98,3268.75,3129.00,3392.55,499.71,486.50,17.05,0000 0000 0000 0000 000000
2014-08-06 04:12:43,0.02,0.56,0.00,24.87,29.09,31.44,9.44,41.26,1002.50,2031.98,3268.07,3128.98,3392.04,500.22,486.95,17.09,0000 0000 0000 0000 000000
2014-08-06 04:17:44,0.00,0.56,0.00,24.90,29.10,31.44,9.33,41.25,1002.48,2031.97,3268.01,3128.94,3392.00,499.46,486.19,17.13,0000 0000 0000 0000 000000
2014-08-06 04:22:45,0.01,0.56,0.00,24.92,29.11,31.47,9.39,41.33,1002.51,2031.90,3267.96,3128.34,3391.99,499.90,486.73,17.18,0000 0000 0000 0000 000000
2014-08-06 04:27:46,-0.00,0.56,0.00,24.94,29.12,31.47,9.39,41.42,1002.47,2031.88,3267.92,3128.07,3391.94,499.96,486.60,17.22,0000 0000 0000 0000 000000
2014-08-06 04:32:48,0.00,0.56,0.00,24.96,29.14,31.48,9.40,41.29,1002.48,2031.66,3267.36,3128.01,3391.52,499.68,486.23,17.26,0000 0000 0000 0000 000000
2014-08-06 04:37:49,-0.01,0.56,0.00,24.97,29.15,31.50,9.44,41.23,1002.49,2031.42,3267.01,3128.00,3391.04,499.91,486.40,17.30,0000 0000 0000 0000 000000
2014-08-06 04:42:50,-0.02,0.56,0.00,24.99,29.16,31.51,9.36,41.15,1002.47,2031.21,3266.95,3127.88,3391.00,500.38,486.90,17.34,0000 0000 0000 0000 000000
2014-08-06 04:47:51,0.02,0.56,0.00,25.01,29.17,31.52,9.39,41.34,1002.47,2031.06,3266.40,3127.24,3390.98,499.98,486.48,17.39,0000 0000 0000 0000 000000
2014-08-06 04:52:53,0.01,0.56,0.00,25.02,29.19,31.54,9.43,41.42,1002.46,2031.01,3266.03,3127.02,3390.78,500.28,486.72,17.43,0000 0000 0000 0000 000000
2014-08-06 04:57:54,0.01,0.56,0.00,25.05,29.20,31.56,9.39,41.49,1002.46,2031.00,3265.97,3127.00,3390.20,499.97,486.33,17.47,0000 0000 0000 0000 000000
2014-08-06 05:02:55,0.02,0.56,0.00,25.07,29.22,31.57,9.34,41.49,1002.46,2031.00,3265.35,3126.93,3390.01,499.82,486.22,17.51,0000 0000 0000 0000 000000
2014-08-06 05:07:56,0.02,0.56,0.00,25.09,29.23,31.59,9.46,41.64,1002.46,2031.00,3265.02,3126.60,3390.00,500.64,486.88,17.55,0000 0000 0000 0000 000000
2014-08-06 05:12:58,0.01,0.57,0.00,25.10,29.25,31.60,9.41,41.56,1002.48,2031.00,3264.99,3126.18,3389.94,499.98,486.37,17.59,0000 0000 0000 0000 000000
2014-08-06 05:17:59,0.19,0.57,0.00,25.09,29.26,31.62,9.31,41.52,1002.47,2031.00,3262.79,3124.77,3388.04,499.73,486.13,17.64,0000 0000 0000 0000 000000
2014-08-06 05:23:00,0.30,0.58,0.00,25.07,29.27,31.63,9.38,41.55,1002.46,2030.98,3256.91,3120.59,3383.65,499.86,486.20,17.68,0000 0000 0000 0000 000000
2014-08-06 05:28:01,0.14,0.59,0.00,25.07,29.29,31.65,9.45,41.43,1002.46,2030.97,3254.20,3118.46,3381.40,500.36,486.63,17.72,0000 0000 0000 0000 000000
2014-08-06 05:33:02,0.01,0.59,0.00,25.03,29.30,31.66,9.44,41.54,1002.46,2030.95,3253.56,3118.02,3381.01,500.04,486.59,17.76,0000 0000 0000 0000 000000
2014-08-06 05:38:04,-0.00,0.59,0.00,25.03,29.31,31.67,9.37,41.50,1002.46,2030.86,3253.08,3118.00,3381.00,499.89,486.34,17.80,0000 0000 0000 0000 000000
2014-08-06 05:43:05,-0.03,0.59,0.00,25.04,29.32,31.69,9.34,41.55,1002.46,2030.62,3253.01,3117.99,3380.96,499.62,486.22,17.85,0000 0000 0000 0000 000000
2014-08-06 05:48:06,-0.00,0.59,0.00,25.03,29.33,31.69,9.38,41.51,1002.46,2030.38,3253.00,3117.92,3380.70,499.72,486.14,17.89,0000 0000 0000 0000 000000
2014-08-06 05:53:08,-0.00,0.59,0.00,25.01,29.35,31.71,9.43,41.49,1002.45,2030.26,3252.92,3117.83,3380.21,499.82,486.39,17.93,0000 0000 0000 0000 000000
2014-08-06 05:58:09,-0.00,0.59,0.00,25.01,29.35,31.71,9.38,41.51,1002.45,2030.09,3252.82,3117.40,3380.06,499.73,486.25,17.97,0000 0000 0000 0000 000000
2014-08-06 06:03:10,0.01,0.59,0.00,24.98,29.35,31.72,9.41,41.68,1002.46,2030.06,3252.11,3117.07,3380.00,499.93,486.55,18.01,0000 0000 0000 0000 000000
2014-08-06 06:08:11,0.01,0.59,0.00,24.96,29.36,31.71,9.40,41.43,1002.46,2030.04,3252.00,3117.00,3379.98,499.87,486.52,18.06,0000 0000 0000 0000 000000
2014-08-06 06:13:13,-0.00,0.59,0.00,24.96,29.37,31.72,9.39,41.61,1002.46,2030.01,3251.99,3117.00,3379.95,500.12,486.60,18.10,0000 0000 0000 0000 000000
2014-08-06 06:18:14,0.00,0.59,0.00,24.95,29.37,31.72,9.42,41.59,1002.46,2030.02,3251.99,3117.00,3379.91,499.78,486.31,18.14,0000 0000 0000 0000 000000
2014-08-06 06:23:15,0.01,0.59,0.00,24.93,29.37,31.73,9.40,41.58,1002.46,2030.01,3251.97,3116.98,3379.36,499.95,486.56,18.18,0000 0000 0000 0000 000000
2014-08-06 06:28:16,0.02,0.59,0.00,24.92,29.37,31.72,9.41,41.53,1002.46,2030.01,3251.53,3116.83,3379.09,500.30,486.94,18.22,0000 0000 0000 0000 000000
2014-08-06 06:33:17,0.02,0.59,0.00,24.89,29.37,31.71,9.43,41.69,1002.46,2030.00,3251.01,3116.21,3379.00,500.21,486.68,18.27,0000 0000 0000 0000 000000
2014-08-06 06:38:17,0.00,0.59,0.00,24.89,29.37,31.73,9.46,41.64,1002.46,2030.00,3251.00,3116.11,3379.00,499.93,486.79,18.31,0000 0000 0000 0000 000000
2014-08-06 06:43:18,0.00,0.59,0.00,24.87,29.37,31.71,9.41,41.42,1002.46,2030.00,3251.00,3116.06,3379.00,500.06,486.71,18.35,0000 0000 0000 0000 000000
2014-08-06 06:48:20,0.00,0.59,0.00,24.86,29.37,31.72,9.38,41.39,1002.46,2030.00,3250.96,3116.01,3378.99,499.73,486.59,18.39,0000 0000 0000 0000 000000
2014-08-06 06:53:21,0.01,0.59,0.00,24.83,29.37,31.71,9.38,41.47,1002.46,2030.01,3250.58,3116.00,3378.96,500.03,486.88,18.43,0000 0000 0000 0000 000000
2014-08-06 06:58:22,0.01,0.60,0.00,24.82,29.37,31.70,9.34,41.52,1002.46,2030.02,3250.19,3116.00,3378.86,500.07,486.65,18.47,0000 0000 0000 0000 000000
2014-08-06 07:03:23,0.00,0.60,0.00,24.80,29.37,31.70,9.41,41.42,1002.47,2030.01,3250.06,3116.00,3378.63,500.04,486.96,18.52,0000 0000 0000 0000 000000
2014-08-06 07:08:24,0.01,0.60,0.00,24.82,29.36,31.69,9.41,41.34,1002.47,2030.00,3250.01,3115.99,3378.25,499.71,486.52,18.56,0000 0000 0000 0000 000000
2014-08-06 07:13:25,0.00,0.60,0.00,24.81,29.35,31.68,9.41,41.39,1002.48,2030.01,3250.00,3115.88,3378.03,499.71,486.53,18.60,0000 0000 0000 0000 000000
2014-08-06 07:18:26,0.03,0.60,0.00,24.79,29.35,31.68,9.39,41.28,1002.48,2030.00,3249.67,3115.25,3377.99,500.01,487.02,18.64,0000 0000 0000 0000 000000
2014-08-06 07:23:27,0.02,0.60,0.00,24.78,29.35,31.66,9.41,41.49,1002.48,2030.02,3248.96,3114.91,3377.75,499.73,486.66,18.68,0000 0000 0000 0000 000000
2014-08-06 07:28:28,0.12,0.60,0.00,24.77,29.34,31.65,9.41,41.26,1002.47,2030.02,3247.44,3113.51,3375.98,499.86,486.76,18.73,0000 0000 0000 0000 000000
2014-08-06 07:33:30,0.01,0.60,0.00,24.77,29.32,31.66,9.41,41.41,1002.46,2030.01,3246.89,3113.00,3375.22,500.18,487.01,18.77,0000 0000 0000 0000 000000
2014-08-06 07:38:31,0.00,0.60,0.00,24.75,29.32,31.64,9.43,41.33,1002.46,2030.03,3246.84,3113.00,3375.28,500.00,486.89,18.81,0000 0000 0000 0000 000000
2014-08-06 07:43:32,0.02,0.61,0.00,24.71,29.32,31.63,9.42,41.28,1002.46,2030.10,3246.22,3113.00,3375.08,499.95,486.86,18.85,0000 0000 0000 0000 000000
2014-08-06 07:48:33,0.22,0.61,0.00,24.70,29.31,31.64,9.39,41.30,1002.46,2030.10,3243.94,3111.14,3373.31,499.89,486.95,18.89,0000 0000 0000 0000 000000
2014-08-06 07:53:34,0.82,0.63,0.00,24.70,29.30,31.63,9.34,41.31,1002.47,2030.15,3232.30,3102.49,3364.33,499.52,486.61,18.94,0000 0000 0000 0000 000000
2014-08-06 07:58:35,0.95,0.68,0.00,24.70,29.30,31.61,9.43,41.54,1002.46,2030.17,3215.46,3089.85,3350.96,499.97,487.03,18.98,0000 0000 0000 0000 000000
2014-08-06 08:03:36,0.68,0.71,0.00,24.67,29.28,31.60,9.45,41.43,1002.46,2030.18,3203.92,3080.88,3341.55,499.82,487.00,19.02,0000 0000 0000 0000 000000
2014-08-06 08:08:38,0.76,0.74,0.00,24.66,29.27,31.59,9.44,41.47,1002.46,2030.32,3191.16,3071.39,3331.51,500.23,487.25,19.06,0000 0000 0000 0000 000000
2014-08-06 08:13:39,0.22,0.76,0.00,24.66,29.27,31.57,9.42,41.41,1002.46,2030.36,3185.27,3067.55,3327.36,499.84,486.90,19.10,0000 0000 0000 0000 000000
2014-08-06 08:18:40,0.01,0.76,0.00,24.64,29.25,31.57,9.40,41.27,1002.46,2030.54,3184.62,3066.99,3326.95,499.69,486.82,19.14,0000 0000 0000 0000 000000
2014-08-06 08:23:42,0.03,0.76,0.00,24.62,29.25,31.55,9.43,41.30,1002.46,2030.87,3184.98,3067.01,3326.99,500.30,487.17,19.19,0000 0000 0000 0000 000000
2014-08-06 08:28:43,-0.02,0.76,0.00,24.62,29.24,31.54,9.41,41.27,1002.46,2030.78,3184.99,3067.07,3326.99,499.83,486.95,19.23,0000 0000 0000 0000 000000
2014-08-06 08:33:44,0.01,0.76,0.00,24.61,29.22,31.54,9.41,41.26,1002.46,2030.90,3185.01,3067.36,3327.01,500.18,487.12,19.27,0000 0000 0000 0000 000000
2014-08-06 08:38:45,-0.03,0.76,0.00,24.58,29.22,31.53,9.47,41.21,1002.46,2030.94,3185.34,3067.87,3327.27,500.88,487.99,19.31,0000 0000 0000 0000 000000
2014-08-06 08:43:46,-0.00,0.76,0.00,24.58,29.20,31.52,9.40,41.11,1002.47,2030.97,3185.67,3067.98,3327.63,499.68,486.88,19.35,0000 0000 0000 0000 000000
2014-08-06 08:48:47,-0.00,0.76,0.00,24.56,29.20,31.50,9.38,41.25,1002.47,2030.97,3185.80,3067.98,3327.65,499.66,487.01,19.40,0000 0000 0000 0000 000000
2014-08-06 08:53:48,-0.01,0.76,0.00,24.55,29.19,31.49,9.45,41.34,1002.48,2030.99,3185.95,3067.99,3327.94,500.19,487.48,19.44,0000 0000 0000 0000 000000
2014-08-06 08:58:50,0.00,0.76,0.00,24.54,29.17,31.49,9.41,41.23,1002.49,2030.99,3185.99,3067.99,3327.97,499.82,486.94,19.48,0000 0000 0000 0000 000000
2014-08-06 09:03:51,0.00,0.76,0.00,24.53,29.17,31.46,9.46,41.19,1002.50,2030.99,3185.99,3067.99,3327.99,500.11,487.46,19.52,0000 0000 0000 0000 000000
2014-08-06 09:08:52,0.00,0.76,0.00,24.51,29.15,31.46,9.39,41.16,1002.53,2030.99,3185.99,3068.00,3327.99,499.91,487.25,19.56,0000 0000 0000 0000 000000
2014-08-06 09:13:53,0.02,0.76,0.00,24.51,29.15,31.46,9.48,41.41,1002.56,2031.00,3185.75,3067.88,3327.81,499.99,487.30,19.60,0000 0000 0000 0000 000000
2014-08-06 09:18:55,0.08,0.76,0.00,24.51,29.13,31.46,9.40,41.17,1002.73,2031.00,3183.97,3067.01,3326.63,499.95,487.31,19.65,0000 0000 0000 0000 000000
2014-08-06 09:23:56,-0.00,0.76,0.00,24.51,29.12,31.44,9.40,41.31,1002.87,2031.01,3183.91,3066.97,3326.60,500.40,487.78,19.69,0000 0000 0000 0000 000000
2014-08-06 09:28:57,0.01,0.76,0.00,24.49,29.12,31.43,9.44,41.34,1002.89,2031.00,3183.63,3066.95,3326.38,499.95,487.41,19.73,0000 0000 0000 0000 000000
2014-08-06 09:33:58,0.01,0.76,0.00,24.48,29.10,31.39,9.43,41.16,1002.93,2031.01,3183.44,3066.93,3326.35,500.14,487.69,19.77,0000 0000 0000 0000 000000
2014-08-06 09:38:59,-0.00,0.76,0.00,24.46,29.10,31.40,9.47,41.13,1002.92,2031.02,3183.29,3066.93,3326.28,500.48,487.99,19.81,0000 0000 0000 0000 000000
2014-08-06 09:44:00,0.01,0.77,0.00,24.45,29.08,31.40,9.49,41.23,1002.92,2031.03,3183.16,3066.89,3326.12,500.39,487.94,19.86,0000 0000 0000 0000 000000
2014-08-06 09:49:01,0.01,0.77,0.00,24.44,29.07,31.39,9.40,41.27,1002.93,2031.03,3183.08,3066.63,3326.03,499.81,487.55,19.90,0000 0000 0000 0000 000000
2014-08-06 09:54:02,0.01,0.77,0.00,24.42,29.06,31.37,9.43,41.19,1002.93,2031.07,3183.01,3066.26,3326.01,500.31,488.01,19.94,0000 0000 0000 0000 000000
2014-08-06 09:59:03,0.01,0.77,0.00,24.41,29.05,31.35,9.42,41.08,1002.94,2031.09,3183.00,3066.09,3326.00,499.75,487.54,19.98,0000 0000 0000 0000 000000
2014-08-06 10:04:05,0.03,0.77,0.00,24.39,29.04,31.34,9.46,41.27,1002.94,2031.22,3183.00,3066.04,3326.00,500.39,488.10,20.02,0000 0000 0000 0000 000000
2014-08-06 10:09:05,0.03,0.77,0.00,24.37,29.02,31.34,9.43,41.37,1002.94,2031.50,3183.00,3066.05,3326.00,500.17,487.94,20.07,0000 0000 0000 0000 000000
2014-08-06 10:14:07,-0.00,0.77,0.00,24.37,29.02,31.32,9.45,41.33,1002.94,2031.54,3182.99,3066.01,3325.97,500.34,488.30,20.11,0000 0000 0000 0000 000000
2014-08-06 10:19:07,0.15,0.77,0.00,24.36,29.00,31.32,9.44,41.44,1002.94,2031.25,3180.63,3064.74,3324.52,499.80,487.60,20.15,0000 0000 0000 0000 000000
2014-08-06 10:24:09,0.03,0.78,0.00,24.35,29.00,31.31,9.45,41.29,1002.95,2031.35,3179.10,3064.00,3323.46,500.07,487.87,20.19,0000 0000 0000 0000 000000
2014-08-06 10:29:10,0.04,0.78,0.00,24.35,28.99,31.29,9.44,41.37,1002.94,2031.68,3179.04,3064.00,3323.40,500.37,488.04,20.23,0000 0000 0000 0000 000000
2014-08-06 10:34:12,0.01,0.78,0.00,24.37,28.97,31.29,9.41,41.37,1002.94,2031.80,3179.04,3064.00,3323.36,499.62,487.35,20.27,0000 0000 0000 0000 000000
2014-08-06 10:39:13,0.01,0.78,0.00,24.35,28.97,31.28,9.44,41.39,1002.94,2031.86,3179.05,3064.00,3323.23,499.90,487.79,20.32,0000 0000 0000 0000 000000
2014-08-06 10:44:13,-0.01,0.78,0.00,24.33,28.95,31.27,9.43,41.37,1002.94,2031.94,3179.08,3064.00,3323.50,499.93,487.72,20.36,0000 0000 0000 0000 000000
2014-08-06 10:49:15,0.01,0.78,0.00,24.33,28.95,31.26,9.46,41.39,1002.94,2031.94,3179.03,3064.00,3323.29,500.09,488.04,20.40,0000 0000 0000 0000 000000
2014-08-06 10:54:15,0.01,0.78,0.00,24.31,28.93,31.25,9.45,41.52,1002.95,2031.94,3179.03,3064.00,3323.28,499.75,487.69,20.44,0000 0000 0000 0000 000000
2014-08-06 10:59:16,-0.00,0.78,0.00,24.30,28.92,31.24,9.49,41.58,1002.96,2031.96,3179.05,3064.00,3323.36,500.24,488.17,20.48,0000 0000 0000 0000 000000
2014-08-06 11:04:17,-0.00,0.78,0.00,24.27,28.91,31.23,9.45,41.58,1002.97,2031.96,3179.03,3064.00,3323.34,500.17,487.93,20.53,0000 0000 0000 0000 000000
2014-08-06 11:09:18,0.00,0.78,0.00,24.26,28.90,31.22,9.48,41.54,1003.03,2031.96,3179.04,3064.00,3323.39,499.88,487.83,20.57,0000 0000 0000 0000 000000
2014-08-06 11:14:19,-0.01,0.78,0.00,24.25,28.90,31.19,9.47,41.67,1003.00,2031.98,3179.11,3064.00,3323.52,500.10,488.19,20.61,0000 0000 0000 0000 000000
2014-08-06 11:19:20,0.00,0.78,0.00,24.24,28.88,31.20,9.40,41.67,1002.98,2031.99,3179.10,3064.00,3323.64,499.76,487.73,20.65,0000 0000 0000 0000 000000
2014-08-06 11:24:21,0.00,0.78,0.00,24.20,28.87,31.17,9.47,41.67,1002.97,2031.99,3179.11,3064.01,3323.74,499.93,487.94,20.69,0000 0000 0000 0000 000000
2014-08-06 11:29:22,0.00,0.78,0.00,24.21,28.86,31.18,9.42,41.74,1002.98,2031.99,3179.01,3064.00,3323.45,499.98,487.79,20.74,0000 0000 0000 0000 000000
2014-08-06 11:34:24,-0.00,0.78,0.00,24.19,28.85,31.15,9.44,41.63,1002.97,2031.99,3179.01,3064.00,3323.70,499.67,487.78,20.78,0000 0000 0000 0000 000000
2014-08-06 11:39:24,0.00,0.78,0.00,24.20,28.84,31.17,9.40,41.68,1002.94,2031.99,3179.00,3064.00,3323.41,499.85,487.84,20.82,0000 0000 0000 0000 000000
2014-08-06 11:44:26,-0.00,0.78,0.00,24.18,28.82,31.14,9.41,41.48,1002.94,2031.99,3179.00,3064.00,3323.31,500.01,488.02,20.86,0000 0000 0000 0000 000000
2014-08-06 11:49:27,-0.00,0.78,0.00,24.17,28.82,31.14,9.50,41.73,1002.95,2031.99,3179.00,3064.01,3323.64,500.01,487.86,20.90,0000 0000 0000 0000 000000
2014-08-06 11:54:28,-0.00,0.78,0.00,24.15,28.80,31.13,9.47,41.65,1002.95,2032.00,3179.02,3064.04,3323.90,500.09,488.06,20.94,0000 0000 0000 0000 000000
2014-08-06 11:59:28,-0.00,0.78,0.00,24.13,28.80,31.12,9.45,41.57,1002.94,2032.01,3179.04,3064.07,3323.97,499.97,488.11,20.99,0000 0000 0000 0000 000000
2014-08-06 12:04:30,-0.00,0.78,0.00,24.15,28.78,31.10,9.42,41.63,1002.94,2032.01,3179.07,3064.13,3323.98,499.91,488.16,21.03,0000 0000 0000 0000 000000
2014-08-06 12:09:31,0.00,0.78,0.00,24.12,28.77,31.10,9.43,41.70,1002.94,2032.02,3179.06,3064.13,3323.98,500.18,488.49,21.07,0000 0000 0000 0000 000000
2014-08-06 12:14:32,0.00,0.78,0.00,24.10,28.76,31.07,9.44,41.67,1002.94,2032.04,3179.03,3064.18,3323.97,499.59,487.79,21.11,0000 0000 0000 0000 000000
2014-08-06 12:19:33,0.00,0.78,0.00,24.06,28.75,31.06,9.43,41.69,1002.94,2032.07,3179.01,3064.18,3323.97,499.73,488.05,21.15,0000 0000 0000 0000 000000
2014-08-06 12:24:34,0.00,0.78,0.00,24.05,28.73,31.06,9.46,41.69,1002.94,2032.07,3179.01,3064.09,3323.95,500.06,488.33,21.20,0000 0000 0000 0000 000000
2014-08-06 12:29:35,-0.00,0.78,0.00,24.06,28.72,31.05,9.45,41.67,1002.94,2032.06,3179.00,3064.07,3323.96,500.12,488.42,21.24,0000 0000 0000 0000 000000
2014-08-06 12:34:36,-0.00,0.78,0.00,24.04,28.71,31.04,9.40,41.67,1002.94,2032.11,3179.00,3064.19,3323.97,500.03,488.32,21.28,0000 0000 0000 0000 000000
2014-08-06 12:39:37,0.01,0.78,0.00,24.03,28.70,31.03,9.51,41.68,1002.94,2032.32,3179.00,3064.32,3323.97,500.26,488.63,21.32,0000 0000 0000 0000 000000
2014-08-06 12:44:38,0.02,0.78,0.00,24.02,28.69,31.01,9.44,41.63,1002.94,2032.40,3179.00,3064.44,3323.98,499.89,488.17,21.36,0000 0000 0000 0000 000000
2014-08-06 12:49:39,0.03,0.78,0.00,24.02,28.67,30.99,9.42,41.61,1002.94,2032.81,3179.01,3064.74,3323.99,500.17,488.41,21.40,0000 0000 0000 0000 000000
2014-08-06 12:54:40,0.01,0.78,0.00,23.99,28.66,31.00,9.47,41.58,1002.92,2032.76,3179.00,3064.37,3323.99,500.19,488.47,21.45,0000 0000 0000 0000 000000
2014-08-06 12:59:41,0.00,0.78,0.00,23.97,28.65,30.98,9.48,41.64,1002.86,2032.93,3179.00,3064.74,3323.99,500.44,488.84,21.49,0000 0000 0000 0000 000000